SQ4LOL-13 Weather Reports


Display with metric or nautical units.
time (UTC)temp
F
wind
direction
speed
MPH
gust
MPH
rain 1hr
in
rain 24hr
in
rain mn
in
humidity
%
barometer
mb
20260506211435 60 0.0 1.0 0.00 0.00 0.00 68 989.4
20260506210434 61 90 1.0 1.0 0.00 0.00 0.00 67 989.5
20260506205432 61 90 1.0 1.0 0.00 0.00 0.00 66 989.5
20260506204429 62 0.0 1.0 0.00 0.00 0.00 65 989.4
20260506203427 63 0.0 1.0 0.00 0.00 0.00 63 989.5
20260506202424 64 0.0 1.0 0.00 0.00 0.00 62 989.5
20260506201424 64 0.0 1.0 0.00 0.00 0.00 61 989.3
20260506200421 65 0.0 1.0 0.00 0.00 0.00 60 989.4
20260506195419 66 0.0 1.0 0.00 0.00 0.00 59 989.3
20260506194419 66 90 1.0 1.0 0.00 0.00 0.00 58 989.2
20260506193455 67 90 1.0 1.0 0.00 0.00 0.00 57 989.2
20260506192413 68 90 1.0 1.0 0.00 0.00 0.00 55 989.2
20260506191411 69 90 1.0 1.0 0.00 0.00 0.00 54 989.2
20260506190409 69 90 1.0 1.0 0.00 0.00 0.00 53 989.0
20260506185407 70 90 1.0 1.0 0.00 0.00 0.00 52 988.9
20260506184426 71 90 1.0 1.0 0.00 0.00 0.00 51 988.7
20260506183423 72 135 1.0 1.0 0.00 0.00 0.00 50 988.6
20260506182402 73 90 1.0 1.0 0.00 0.00 0.00 49 988.4
20260506181359 73 122 1.0 1.0 0.00 0.00 0.00 48 988.2
20260506180357 74 0.0 1.0 0.00 0.00 0.00 47 988.3
20260506175355 74 186 1.0 1.0 0.00 0.00 0.00 46 988.2
20260506174413 75 230 1.0 4.0 0.00 0.00 0.00 45 988.1
20260506173351 75 270 1.0 5.0 0.00 0.00 0.00 45 987.9
20260506172349 76 270 2.0 10.0 0.00 0.00 0.00 44 987.8
20260506171347 76 245 1.0 6.0 0.00 0.00 0.00 44 987.6
20260506170345 76 239 1.0 4.0 0.00 0.00 0.00 43 987.6
20260506165343 77 225 1.0 4.0 0.00 0.00 0.00 42 987.6
20260506164402 77 233 1.0 3.0 0.00 0.00 0.00 42 987.5
20260506163339 77 229 1.0 4.0 0.00 0.00 0.00 41 987.4
20260506162337 77 232 1.0 7.0 0.00 0.00 0.00 41 987.4
20260506161334 78 206 1.0 2.0 0.00 0.00 0.00 40 987.4
20260506160353 78 220 1.0 4.0 0.00 0.00 0.00 39 987.4
20260506155332 79 203 1.0 3.0 0.00 0.00 0.00 38 987.4
20260506154329 79 216 1.0 4.0 0.00 0.00 0.00 38 987.4
20260506153347 79 207 1.0 4.0 0.00 0.00 0.00 39 987.2
20260506152324 79 204 1.0 3.0 0.00 0.00 0.00 38 987.3
20260506151323 80 213 1.0 2.0 0.00 0.00 0.00 37 987.2
20260506150341 80 198 1.0 2.0 0.00 0.00 0.00 36 987.3
20260506145318 81 202 1.0 4.0 0.00 0.00 0.00 35 987.3
20260506144317 82 200 1.0 4.0 0.00 0.00 0.00 34 987.2
20260506143316 82 207 1.0 4.0 0.00 0.00 0.00 34 987.2
20260506142333 83 216 1.0 5.0 0.00 0.00 0.00 34 987.1
20260506141311 83 203 1.0 4.0 0.00 0.00 0.00 34 987.1
20260506140310 83 200 2.0 4.0 0.00 0.00 0.00 33 987.2
20260506135307 83 180 2.0 7.0 0.00 0.00 0.00 33 987.1
20260506134306 84 176 4.0 10.0 0.00 0.00 0.00 32 987.2
20260506133303 85 181 3.0 9.0 0.00 0.00 0.00 31 987.2
20260506132301 86 177 4.0 14.0 0.00 0.00 0.00 31 987.2
20260506131319 85 176 6.0 15.0 0.00 0.00 0.00 31 987.2
20260506130327 85 180 4.0 9.0 0.00 0.00 0.00 31 987.1
20260506125255 85 175 4.0 11.0 0.00 0.00 0.00 32 987.2
20260506124253 85 183 3.0 7.0 0.00 0.00 0.00 34 987.1
20260506123340 85 183 3.0 7.0 0.00 0.00 0.00 34 987.1
20260506122249 84 184 2.0 5.0 0.00 0.00 0.00 33 987.1
20260506121248 84 174 3.0 11.0 0.00 0.00 0.00 34 987.3
20260506120245 83 178 4.0 12.0 0.00 0.00 0.00 34 987.3
20260506115244 83 184 2.0 6.0 0.00 0.00 0.00 34 987.4
20260506114241 82 170 3.0 10.0 0.00 0.00 0.00 34 987.6
20260506113239 82 181 2.0 4.0 0.00 0.00 0.00 35 987.8
20260506112238 81 168 3.0 7.0 0.00 0.00 0.00 35 987.8
20260506111236 80 176 3.0 9.0 0.00 0.00 0.00 36 988.0
20260506110233 80 174 3.0 7.0 0.00 0.00 0.00 36 988.0
20260506105312 80 170 4.0 11.0 0.00 0.00 0.00 36 988.0
20260506104228 79 167 3.0 10.0 0.00 0.00 0.00 37 988.0
20260506103227 79 180 4.0 9.0 0.00 0.00 0.00 37 988.1
20260506102225 78 169 3.0 7.0 0.00 0.00 0.00 38 988.1
20260506101223 78 183 3.0 5.0 0.00 0.00 0.00 39 988.3
20260506100222 77 173 3.0 10.0 0.00 0.00 0.00 40 988.5
20260506095219 77 170 4.0 10.0 0.00 0.00 0.00 40 988.5
20260506094217 76 174 3.0 9.0 0.00 0.00 0.00 42 988.5
20260506093216 75 171 3.0 8.0 0.00 0.00 0.00 44 988.6
20260506092213 74 171 1.0 4.0 0.00 0.00 0.00 45 988.8
20260506091212 74 167 3.0 7.0 0.00 0.00 0.00 46 989.1
20260506090230 73 178 2.0 5.0 0.00 0.00 0.00 48 988.8
20260506085207 72 147 3.0 6.0 0.00 0.00 0.00 51 988.9
20260506084206 70 103 2.0 7.0 0.00 0.00 0.00 54 988.8
20260506083203 69 117 1.0 4.0 0.00 0.00 0.00 56 988.8
20260506082222 68 117 1.0 4.0 0.00 0.00 0.00 57 988.9
20260506081159 66 90 1.0 4.0 0.00 0.00 0.00 62 989.0
20260506080158 65 135 1.0 4.0 0.00 0.00 0.00 64 989.2
20260506073151 63 90 1.0 4.0 0.00 0.00 0.00 71 989.5
20260506072149 62 90 1.0 4.0 0.00 0.00 0.00 73 989.5
20260506071148 61 90 2.0 4.0 0.00 0.00 0.00 74 989.5
20260506070205 60 69 3.0 6.0 0.00 0.00 0.00 76 989.4
20260506062138 57 67 2.0 4.0 0.00 0.00 0.00 82 989.8
20260506061135 57 80 2.0 4.0 0.00 0.00 0.00 83 989.8
20260506060134 56 80 2.0 4.0 0.00 0.00 0.00 83 989.8
20260506051124 55 90 1.0 4.0 0.00 0.00 0.00 88 990.1
20260506050122 55 90 1.0 3.0 0.00 0.00 0.00 88 990.1
20260506045120 54 90 1.0 4.0 0.00 0.00 0.00 89 990.0
20260506044117 54 56 1.0 4.0 0.00 0.00 0.00 88 989.9
20260506043115 54 69 2.0 4.0 0.00 0.00 0.00 88 990.0
20260506042113 54 60 2.0 5.0 0.00 0.00 0.00 88 989.8
20260506041111 54 50 2.0 6.0 0.00 0.00 0.00 88 989.9
20260506040130 54 53 1.0 4.0 0.00 0.00 0.00 88 989.9
20260506035107 54 43 2.0 5.0 0.00 0.00 0.00 88 989.8
20260506034125 54 50 2.0 4.0 0.00 0.00 0.00 88 989.8
20260506033144 54 51 3.0 6.0 0.00 0.00 0.00 87 989.7
20260506032101 54 62 2.0 4.0 0.00 0.00 0.00 87 989.8
20260506031059 54 41 2.0 4.0 0.00 0.00 0.00 87 989.8
20260506030057 54 40 1.0 4.0 0.00 0.00 0.00 87 989.9
20260506025055 54 40 1.0 3.0 0.00 0.00 0.00 86 989.9
20260506024114 54 65 1.0 4.0 0.00 0.00 0.00 86 989.9
20260506023051 54 62 1.0 4.0 0.00 0.00 0.00 85 989.9
20260506022109 54 46 2.0 4.0 0.00 0.00 0.00 84 989.6
20260506021048 55 32 1.0 3.0 0.00 0.00 0.00 84 989.5
20260506020045 55 40 1.0 4.0 0.00 0.00 0.00 84 989.4
20260506015044 55 42 1.0 3.0 0.00 0.00 0.00 84 989.5
20260506014101 55 42 1.0 4.0 0.00 0.00 0.00 84 989.4
20260506013039 56 59 1.0 4.0 0.00 0.00 0.00 84 989.4
20260506012057 56 71 1.0 4.0 0.00 0.00 0.00 83 989.4
20260506011035 56 52 2.0 4.0 0.00 0.00 0.00 83 989.4
20260506010033 56 82 2.0 5.0 0.00 0.00 0.00 83 989.3
20260506005031 56 67 1.0 5.0 0.00 0.00 0.00 83 989.3
20260506004030 56 80 2.0 4.0 0.00 0.00 0.00 82 989.4
20260506003027 57 70 1.0 4.0 0.00 0.00 0.00 82 989.3
20260506002025 57 73 1.0 4.0 0.00 0.00 0.00 82 989.4
20260506001024 57 56 1.0 4.0 0.00 0.00 0.00 82 989.4
20260506000021 57 70 2.0 5.0 0.00 0.00 0.00 81 989.4
20260505235019 57 90 1.0 4.0 0.00 0.00 0.00 81 989.4
20260505234037 57 90 1.0 3.0 0.00 0.00 0.00 80 989.5
20260505233015 58 65 1.0 4.0 0.00 0.00 0.00 79 989.4
20260505232012 58 118 1.0 4.0 0.00 0.00 0.00 79 989.7
20260505231012 58 67 2.0 4.0 0.00 0.00 0.00 78 989.6
20260505230031 59 66 1.0 4.0 0.00 0.00 0.00 77 989.7
20260505225027 59 60 1.0 2.0 0.00 0.00 0.00 77 989.6
20260505224005 59 60 1.0 4.0 0.00 0.00 0.00 76 989.6
20260505223003 60 60 1.0 4.0 0.00 0.00 0.00 75 989.6
20260505221541 60 90 1.0 4.0 0.00 0.00 0.00 74 989.8
20260505220458 61 54 1.0 3.0 0.00 0.00 0.00 74 989.6
20260505215456 61 68 1.0 3.0 0.00 0.00 0.00 73 989.7
20260505214454 62 63 1.0 3.0 0.00 0.00 0.00 73 989.7
20260505213453 62 72 1.0 3.0 0.00 0.00 0.00 72 989.6
20260505212450 62 78 2.0 4.0 0.00 0.00 0.00 72 989.7